千帆星座-19 (QIANFAN-19)

导读

QIANFAN-19 是中国自主研发的北斗卫星导航系统中的重要成员,于2023年成功发射。该卫星主要用于提供高精度定位、导航和授时服务,增强北斗系统在全球范围内的覆盖与稳定性。QIANFAN-19 采用先进技术和高可靠性设计,支持多种信号体制,提升系统抗干扰能力。其成功发射标志着中国在卫星导航领域持续领先,为交通运输、通信、农业、应急救援等多个行业提供有力支撑,推动国家空间信息基础设施建设。

Basic Information
目录编号:
61552
目录名称:
QIANFAN-19
国际标识:
2024-185A
轨道中心:
EARTH
卫星名称:
千帆星座-19
卫星全名:
千帆星座-19 (QIANFAN-19)
卫星状态:
在轨 (已飞行650 天)
发射日期:
2024-10-15 UTC
国别 :
中国 (CN)
星等 :
--
Orbit Information
数据来源 国际轨道数据 AOE轨道数据
星历时间 2026-07-27T22:34:18+0800
8小时前
查看轨道信息
2026-07-27T01:00:00+0800
1天前
查看轨道信息
半长轴 7222.147km 7222.144km
偏心率 0.0004933 0.000502
轨道倾角 88.980° 88.980°
近地点辐角 309.078° 314.317°
升交点赤经 51.946° 52.050°
平近点角 50.997° 151.676°
近地点 840.447km 840.381km
远地点 847.573km 847.633km
周期 101.803分钟 101.803分钟
每日圈数 14.145013 14.145022
Detailed Information
卫星平台:
19
覆盖范围:
全球
运营商:
上海垣信卫星科技有限公司
运营商所在国:
中国
使用方式:
暂无
Satellite Introduction
千帆星座,也被称为“G60星链”计划,是中国版“星链”的重要组成部分,旨在打造一个由1.4万多颗低轨宽频多媒体卫星构成的庞大星座。千帆星座计划由上海垣信卫星科技有限公司负责实施,于2023年启动建设。该项目是我国第二个低轨卫星大星座,旨在通过构建庞大的卫星网络,为全球用户提供高质量的通信和宽带互联网服务。
2D Orbit Map
3D Orbit Map
Orbit Altitude Analysis Chart
Orbit Inclination Analysis Chart
Orbit Comprehensive Analysis Chart
View Comprehensive Chart